Location: Chmeln�
(49.6483°N, 14.9871°E)
Time: 03:05:29
(UTC+00:00)

Cosmos 1464 Rocket - Pass Details

Date: 18 September 2020
Orbit: 953 x 1000 km, 82.9° (Epoch: 24 October)

Event Time Altitude Azimuth Distance (km) Brightness Sun altitude
Rises 17:58:03 0° 167° (SSE) 3,617 6.7 -9.2°
Reaches altitude 10° 18:00:37 10° 162° (SSE) 2,676 6.0 -9.6°
Maximum altitude 18:06:25 47° 90° (E) 1,254 4.2 -10.5°
Drops below altitude 10° 18:12:16 10° 19° (NNE) 2,710 6.3 -11.4°
Sets 18:14:52 0° 14° (NNE) 3,666 7.1 -11.8°
